WetterOnline ( https://www.wetteronline.de )

Wetter aktuell Freiburg im Breisgau

Aktuelles Wetter: Freiburg/Flugplatz (236m)

6-stündlich | Neueste Meldungen
Ortszeit Temperatur Wetter
Fr, 26.02. 1:00 7.4° C wolkenlos
Do, 25.02. 19:00 14.3° C wolkenlos
Do, 25.02. 13:00 19.5° C wolkenlos
Do, 25.02. 7:00 4.2° C wolkenlos
Do, 25.02. 1:00 6.4° C wolkenlos
Mi, 24.02. 19:00 14.8° C wolkenlos
Mi, 24.02. 13:00 16.9° C wolkenlos
Mi, 24.02. 7:00 4.2° C wolkenlos
Ortszeit Temperatur Wetter
Fr, 26.02. 2:00 6.0° C wolkenlos
Fr, 26.02. 1:30 6.0° C leicht bewölkt
Fr, 26.02. 1:20 6.0° C leicht bewölkt
Fr, 26.02. 1:10 6.7° C leicht bewölkt
Fr, 26.02. 1:00 7.4° C wolkenlos
Fr, 26.02. 0:50 7.4° C wolkenlos
Fr, 26.02. 0:30 6.4° C wolkenlos
Fr, 26.02. 0:00 8.0° C wolkenlos
Do, 25.02. 23:30 7.3° C leicht bewölkt
Do, 25.02. 23:00 7.7° C leicht bewölkt
Do, 25.02. 22:30 10.2° C leicht bewölkt
Ortszeit Relative Feuchte Sichtweite
Fr, 26.02. 1:00 64% 22 km
Do, 25.02. 19:00 41% 23 km
Do, 25.02. 13:00 33% 20 km
Do, 25.02. 7:00 86% 17 km
Do, 25.02. 1:00 85% 14 km
Mi, 24.02. 19:00 59% 21 km
Mi, 24.02. 13:00 50% 22 km
Mi, 24.02. 7:00 89% 23 km
Ortszeit Relative Feuchte Sichtweite
Fr, 26.02. 2:00 72% 17 km
Fr, 26.02. 1:30 71% 12 km
Fr, 26.02. 1:20 71% -
Fr, 26.02. 1:10 68% -
Fr, 26.02. 1:00 64% 22 km
Fr, 26.02. 0:50 64% -
Fr, 26.02. 0:30 68% 20 km
Fr, 26.02. 0:00 63% 23 km
Do, 25.02. 23:30 63% 18 km
Do, 25.02. 23:00 62% 25 km
Do, 25.02. 22:30 51% 27 km
Ortszeit Niederschlagsmenge Niederschlagsart
Fr, 26.02. 1:00 0.0 l/m2 in 6 Std. -
Do, 25.02. 19:00 0.0 l/m2 in 12 Std. -
Do, 25.02. 13:00 0.0 l/m2 in 6 Std. -
Do, 25.02. 7:00 0.0 l/m2 in 12 Std. -
Do, 25.02. 1:00 0.0 l/m2 in 6 Std. -
Mi, 24.02. 19:00 0.0 l/m2 in 12 Std. -
Mi, 24.02. 13:00 0.0 l/m2 in 6 Std. -
Mi, 24.02. 7:00 0.0 l/m2 in 12 Std. -
Ortszeit Niederschlagsmenge Niederschlagsart
Fr, 26.02. 2:00 0.0 l/m2 in 1 Std. -
Fr, 26.02. 1:30 0.0 l/m2 in 1 Std. -
Fr, 26.02. 1:20 keine Meldung -
Fr, 26.02. 1:10 keine Meldung -
Fr, 26.02. 1:00 0.0 l/m2 in 1 Std. -
Fr, 26.02. 0:50 keine Meldung -
Fr, 26.02. 0:30 0.0 l/m2 in 1 Std. -
Fr, 26.02. 0:00 0.0 l/m2 in 1 Std. -
Do, 25.02. 23:30 0.0 l/m2 in 1 Std. -
Do, 25.02. 23:00 0.0 l/m2 in 1 Std. -
Do, 25.02. 22:30 0.0 l/m2 in 1 Std. -
Ortszeit Stärke Spitze Richtung
km/h Bft. km/h Grad Sektor
Fr, 26.02. 1:00 7 2 14 160° S
Do, 25.02. 19:00 7 2 29 160° S
Do, 25.02. 13:00 4 1 7 280° W
Do, 25.02. 7:00 2 1 11 260° W
Do, 25.02. 1:00 2 1 19 260° W
Mi, 24.02. 19:00 4 1 11 120° SO
Mi, 24.02. 13:00 4 1 11 200° S
Mi, 24.02. 7:00 2 1 6 330° NW
Ortszeit Stärke Spitze Richtung
km/h Bft. km/h Grad Sektor
Fr, 26.02. 2:00 0 0 7 - -
Fr, 26.02. 1:30 6 1 7 20° N
Fr, 26.02. 1:20 6 1 - 20° N
Fr, 26.02. 1:10 4 1 - 350° N
Fr, 26.02. 1:00 7 2 11 160° S
Fr, 26.02. 0:50 7 2 - 160° S
Fr, 26.02. 0:30 4 1 7 120° SO
Fr, 26.02. 0:00 7 2 13 340° N
Do, 25.02. 23:30 2 1 4 20° N
Do, 25.02. 23:00 2 1 11 70° O
Do, 25.02. 22:30 7 2 11 330° NW
Ortszeit Untergrenze Bedeckung Gattung
total tief tief mittel hoch
Fr, 26.02. 1:00 - 0/8 0/8 - - -
Do, 25.02. 19:00 - 0/8 0/8 - - -
Do, 25.02. 13:00 - 0/8 0/8 - - -
Do, 25.02. 7:00 - 0/8 0/8 - - -
Do, 25.02. 1:00 - 0/8 0/8 - - -
Mi, 24.02. 19:00 - 0/8 0/8 - - -
Mi, 24.02. 13:00 - 0/8 0/8 - - -
Mi, 24.02. 7:00 - 0/8 0/8 - - -
Ortszeit Bedeckungsgrad in Achtel und Wolkenuntergrenze
Fr, 26.02. 2:00 keine Wolken
Fr, 26.02. 1:30 4(9000m)
Fr, 26.02. 1:20 4(9000m)
Fr, 26.02. 1:10 3(9000m)
Fr, 26.02. 1:00 keine Wolken
Fr, 26.02. 0:50 keine Wolken
Fr, 26.02. 0:30 keine Wolken
Fr, 26.02. 0:00 keine Wolken
Do, 25.02. 23:30 5(8700m) 5(9000m)
Do, 25.02. 23:00 4(8700m) 4(9000m)
Do, 25.02. 22:30 5(8700m)
Ortszeit Luftdruck NN (hPa) Tendenz (hPa in 3 Std.)
Fr, 26.02. 1:00 1031 + 0,7
Do, 25.02. 19:00 1028 + 0,6
Do, 25.02. 13:00 1029 - 0,7
Do, 25.02. 7:00 1031 - 0,1
Do, 25.02. 1:00 1031 - 0,1
Mi, 24.02. 19:00 1030 - 0,4
Mi, 24.02. 13:00 1033 - 1,4
Mi, 24.02. 7:00 1036 - 0,1
Ortszeit Luftdruck NN (hPa) Tendenz (hPa in 3 Std.)
Fr, 26.02. 2:00 1031 + 0,4
Fr, 26.02. 1:30 1031 + 0,5
Fr, 26.02. 1:20 1031 keine Meldung
Fr, 26.02. 1:10 1031 keine Meldung
Fr, 26.02. 1:00 1031 + 0,7
Fr, 26.02. 0:50 1031 keine Meldung
Fr, 26.02. 0:30 1031 + 0,8
Fr, 26.02. 0:00 1031 + 0,8
Do, 25.02. 23:30 1031 + 0,8
Do, 25.02. 23:00 1031 + 1,0
Do, 25.02. 22:30 1030 + 1,2
Ortszeit Schneehöhe (cm)
Fr, 26.02. 1:00 0
Do, 25.02. 19:00 0
Do, 25.02. 13:00 0
Do, 25.02. 7:00 0
Do, 25.02. 1:00 0
Mi, 24.02. 19:00 0
Mi, 24.02. 13:00 0
Mi, 24.02. 7:00 0
Ortszeit Schneehöhe (cm)
Fr, 26.02. 2:00 0
Fr, 26.02. 1:30 0
Fr, 26.02. 1:20 0
Fr, 26.02. 1:10 0
Fr, 26.02. 1:00 0
Fr, 26.02. 0:50 0
Fr, 26.02. 0:30 0
Fr, 26.02. 0:00 0
Do, 25.02. 23:30 0
Do, 25.02. 23:00 0
Do, 25.02. 22:30 0
Link zu dieser Seite / Seite empfehlen

Das Wetter in ...